[[[{"header":{"parameterUnit":"kt","parameterCategory":2,"dx":1,"dy":1,"la1":30.253999710083008,"la2":30.299108505249023,"lo1":-89.0895004272461,"lo2":-89.04439544677734,"nx":28,"ny":28,"refTime":"2022-10-13T21:00:00:Z","depth":0,"parameterNumber":1,"parameterNumberName":"U-component_of_WINDS"},"data":[-1.2692,-1.2739,-1.2685,-1.2714,-1.2671,-1.2682,-1.2669,-1.2647,-1.2616,-1.2626,-1.2622,-1.2573,-1.2522,-1.2506,-1.25,-1.2479,-1.2482,-1.254,-1.2506,-1.2292,-1.2259,-1.2228,-1.2213,-1.2541,-1.2541,-1.2736,-1.2737,-1.2739,-1.255,-1.2507,-1.2505,-1.2466,-1.2465,-1.2378,-1.234,-1.2346,-1.2359,-1.232,-1.2311,-1.2316,-1.2312,-1.2238,-1.2226,-1.225,-1.2209,-1.2251,-1.225,-1.2244,-1.2013,-1.1998,-1.2285,-1.2285,-1.2285,-1.2285,-1.2285,-1.2285,-1.2276,-1.2306,-1.2249,-1.2245,-1.221,-1.2185,-1.2204,-1.2141,-1.2139,-1.2116,-1.205,-1.2064,-1.2014,-1.197,-1.1942,-1.1953,-1.1896,-1.1925,-1.1933,-1.1944,-1.1964,-1.17,-1.1947,-1.1946,-1.1945,-1.1945,-1.1944,0,-1.2059,-1.2011,-1.2003,-1.1981,-1.1974,-1.1951,-1.192,-1.193,-1.1807,-1.181,-1.1811,-1.1802,-1.1786,-1.1782,-1.1756,-1.1718,-1.1629,-1.1611,-1.1632,-1.1667,-1.1704,-1.169,-1.1321,-1.1605,-1.1601,-1.1599,-1.1597,-1.1596,-1.1783,-1.1821,-1.1732,-1.1734,-1.1702,-1.1707,-1.1699,-1.1586,-1.1583,-1.1529,-1.1561,-1.1553,-1.1541,-1.1552,-1.1477,-1.1465,-1.1421,-1.1537,-1.1418,-1.1451,-1.1428,-1.1428,-1.1434,-1.1563,-1.1567,-1.1571,-1.1573,0,-1.1634,-1.1539,-1.1579,-1.1485,-1.1463,-1.151,-1.143,-1.1454,-1.1387,-1.1411,-1.1411,-1.1307,-1.1309,-1.1213,-1.1196,-1.1147,-1.1231,-1.1186,-1.1249,-1.1236,-1.1333,-1.1327,-1.1655,-1.1694,-1.1349,-1.1352,-1.1355,0,-1.1362,-1.1415,-1.1271,-1.1299,-1.1356,-1.1238,-1.1298,-1.1246,-1.1196,-1.1214,-1.1093,-1.1113,-1.0985,-1.0992,-1.0918,-1.0968,-1.0963,-1.093,-1.0911,-1.0943,-1.0948,-1.0942,-1.0928,-1.0858,-1.0857,-1.0855,-1.0854,0,-1.114,-1.1122,-1.1166,-1.1147,-1.105,-1.1074,-1.1036,-1.0977,-1.097,-1.0944,-1.0938,-1.0917,-1.0906,-1.0894,-1.0799,-1.0723,-1.0856,-1.0732,-1.0822,-1.0825,-1.0858,-1.0858,-1.117,-1.0852,-1.0851,-1.0851,-1.085,0,-1.0906,-1.0878,-1.0955,-1.0872,-1.0871,-1.09,-1.087,-1.0871,-1.0819,-1.0773,-1.0751,-1.0658,-1.0689,-1.0574,-1.0617,-1.0546,-1.0544,-1.0512,-1.0517,-1.0516,-1.039,-1.0584,-1.0888,-1.0918,-1.0514,-1.0512,-1.0509,0,-1.0681,-1.073,-1.0627,-1.0702,-1.0711,-1.0573,-1.0602,-1.0558,-1.0498,-1.0499,-1.0432,-1.0434,-1.0327,-1.0314,-1.0347,-1.028,-1.0374,-1.0264,-1.0274,-1.0276,-1.0296,-1.0573,-1.0644,-1.0831,-1.0471,-1.0475,-1.0478,0,-1.0494,-1.037,-1.0391,-1.0364,-1.0281,-1.0287,-1.032,-1.0293,-1.03,-1.026,-1.0288,-1.0285,-1.0205,-1.0184,-1.0104,-1.0145,-1.0307,-1.0053,-1.005,-1.0106,-1.0442,-1.051,-1.0542,-1.0246,-1.025,-1.0254,-1.0448,0,-1.0169,-1.0178,-1.0226,-1.0166,-1.0154,-1.0192,-1.0083,-1.0086,-1.001,-0.9944,-0.998,-0.9914,-0.9888,-0.9894,-0.982,-0.9941,-0.9906,-0.982,-0.9701,-0.9883,-0.9945,-0.997,-0.9619,-0.9614,-0.9611,-0.9608,0,0,-0.998,-0.9989,-0.9871,-0.9896,-0.9879,-0.9731,-0.9783,-0.9748,-0.9683,-0.9675,-0.9608,-0.9595,-0.9544,-0.9599,-0.9647,-0.9634,-0.9648,-0.9587,-0.9796,-0.9818,-0.9837,-0.9906,-0.9933,-0.9602,-0.9601,-0.9599,-0.9598,0,-0.9838,-0.9785,-0.9834,-0.9793,-0.9726,-0.9652,-0.9665,-0.9573,-0.9533,-0.9563,-0.9442,-0.945,-0.944,-0.9404,-0.9384,-0.9577,-0.9486,-0.9576,-0.9718,-0.9765,-0.9791,-0.9814,-0.9887,-0.9914,-0.959,-0.959,-0.9591,0,-0.9637,-0.9567,-0.9578,-0.9526,-0.9481,-0.9491,-0.934,-0.9356,-0.9364,-0.92,-0.9233,-0.9182,-0.9123,-0.9186,-0.9211,-0.915,-0.9347,-0.9262,-0.9281,-0.9282,-0.9322,-0.9354,-0.9382,-0.9014,-0.9012,-0.901,0,0,-0.953,-0.9534,-0.9422,-0.9487,-0.9467,-0.9356,-0.9349,-0.9271,-0.9218,-0.9198,-0.9129,-0.9084,-0.9077,-0.9075,-0.9062,-0.9146,-0.9126,-0.9196,-0.9223,-0.9246,-0.9259,-0.9305,-0.9337,-0.9005,-0.9005,-0.9004,0,0,-0.9478,-0.935,-0.928,-0.9341,-0.9295,-0.9189,-0.9234,-0.9147,-0.9123,-0.9107,-0.8976,-0.8958,-0.9015,-0.8968,-0.8903,-0.9018,-0.8903,-0.8916,-0.9046,-0.9079,-0.9105,-0.9117,-0.8739,0,0,0,0,0,-0.9274,-0.9365,-0.9304,-0.9297,-0.9229,-0.9223,-0.9214,-0.9107,-0.9029,-0.9068,-0.8996,-0.8897,-0.8907,-0.8846,-0.8842,-0.8917,-0.8929,-0.8942,-0.8955,-0.9142,-0.9177,-0.9207,0,0,0,0,0,0,-0.9271,-0.9263,-0.9301,-0.9201,-0.9184,-0.9219,-0.9063,-0.9036,-0.9022,-0.9003,-0.8914,-0.8894,-0.8804,-0.884,-0.8838,-0.8912,-0.8739,-0.8934,-0.8946,-0.8956,-0.9154,-0.9183,-0.9208,0,0,0,0,0,-0.9267,-0.9261,-0.9179,-0.9199,-0.9185,-0.9064,-0.9058,-0.9035,-0.9022,-0.891,-0.8887,-0.8942,-0.8809,-0.88,-0.8838,-0.8915,-0.8739,-0.8739,-0.8942,-0.8951,-0.8959,-0.9168,0,0,0,0,0,0,-0.9265,-0.924,-0.9174,-0.9166,-0.9155,-0.906,-0.9041,-0.9035,-0.8928,-0.8906,-0.8932,-0.8918,-0.8813,-0.8806,-0.88,-0.8923,-0.8739,-0.8739,-0.8739,-0.8948,-0.8955,-0.8962,0,0,0,0,0,0,-0.9243,-0.9234,-0.917,-0.912,-0.9105,-0.9057,-0.904,-0.9056,-0.8929,-0.8955,-0.894,-0.8927,-0.8823,-0.881,-0.8805,-0.8834,-0.874,-0.8739,-0.8739,-0.8739,-0.8954,-0.896,0,0,0,0,0,0,-0.9237,-0.923,-0.9122,-0.911,-0.9097,-0.8997,-0.9069,-0.9006,-0.8886,-0.8963,-0.8872,-0.8866,-0.883,-0.8823,-0.881,-0.8842,-0.8836,-0.874,-0.8739,-0.8739,-0.8739,0,0,0,0,0,0,0,-0.9233,-0.9307,-0.9223,-0.9102,-0.909,-0.909,-0.9087,-0.9085,-0.8884,-0.8879,-0.8873,-0.8868,-0.874,-0.874,-0.874,-0.8848,0,0,-0.874,-0.874,0,0,0,0,0,0,0,0,-0.9308,-0.9307,-0.9222,-0.9221,-0.9219,-0.9089,-0.9088,-0.9086,-0.8883,-0.8879,-0.8874,-0.887,-0.874,-0.874,-0.874,0,0,0,0,0,0,0,0,0,0,0,0,0,0,0,-0.9222,-0.9221,0,-0.9089,-0.9088,-0.9086,-0.8883,-0.8879,-0.8875,-0.8872,-0.874,-0.874,-0.874,0,0,0,0,0,0,0,0,0,0,0,0,0,0,0,0,0,0,0,0,0,0,0,0,0,0,0,0,0,0,0,0,0,0,0,0,0,0,0,0,0,0,0,0,0,0,0,0,0,0,0,0,0,0,0,0,0,0,0,0,0,0,0,0,0,0,0,0,0]}],[{"header":{"parameterUnit":"kt","parameterCategory":2,"dx":1,"dy":1,"la1":30.253999710083008,"la2":30.299108505249023,"lo1":-89.0895004272461,"lo2":-89.04439544677734,"nx":28,"ny":28,"refTime":"2022-10-13T21:00:00:Z","depth":0,"parameterNumber":2,"parameterNumberName":"V-component_of_WINDS"},"data":[3.0907,3.0859,3.0861,3.0807,3.08,3.0762,3.0748,3.0731,3.0717,3.067,3.0643,3.0639,3.0624,3.0589,3.0558,3.0556,3.054,3.0522,3.0521,3.0607,3.0618,3.0629,3.064,3.052,3.052,3.043,3.0429,3.0429,3.0966,3.0959,3.0932,3.0907,3.0883,3.0902,3.0883,3.086,3.0825,3.0809,3.0783,3.0741,3.0707,3.0698,3.0665,3.0639,3.0643,3.0629,3.0628,3.0624,3.0717,3.0729,3.0626,3.0626,3.0626,3.0626,3.0626,3.0626,3.1074,3.1046,3.1032,3.1003,3.0991,3.0974,3.0946,3.0943,3.0915,3.0884,3.0891,3.0851,3.0832,3.0793,3.078,3.0746,3.0762,3.0745,3.074,3.0734,3.0726,3.0846,3.0742,3.0742,3.0742,3.0742,3.0743,0,3.1152,3.1156,3.1131,3.1106,3.1085,3.1065,3.1047,3.1031,3.1038,3.1014,3.098,3.096,3.0919,3.0884,3.0854,3.0843,3.0856,3.0859,3.0847,3.0839,3.0836,3.0831,3.0978,3.0861,3.0862,3.0863,3.0863,3.0864,3.1255,3.1225,3.1213,3.1194,3.1186,3.1156,3.1139,3.1148,3.1129,3.1107,3.108,3.1048,3.1022,3.0964,3.0957,3.0925,3.093,3.0885,3.0925,3.092,3.0922,3.0922,3.0916,3.0875,3.0873,3.0872,3.0871,0,3.1313,3.1318,3.127,3.1261,3.1258,3.1224,3.1215,3.1187,3.1187,3.1147,3.1139,3.1137,3.1102,3.1103,3.1063,3.1063,3.1,3.1009,3.1005,3.1005,3.096,3.0962,3.0826,3.0806,3.0937,3.0936,3.0935,0,3.14,3.136,3.1368,3.1341,3.1295,3.1306,3.1259,3.1254,3.1241,3.1211,3.1229,3.1199,3.1206,3.1175,3.1177,3.1126,3.112,3.1116,3.1115,3.1111,3.111,3.1095,3.1098,3.1123,3.1124,3.1125,3.1125,0,3.1485,3.1444,3.14,3.1391,3.1377,3.1355,3.1348,3.1334,3.1316,3.1294,3.1282,3.1255,3.1238,3.1216,3.1217,3.1244,3.1158,3.1195,3.1152,3.1151,3.1129,3.1129,3.1013,3.1126,3.1126,3.1126,3.1127,0,3.1555,3.1536,3.1473,3.1461,3.1449,3.142,3.1395,3.1371,3.1354,3.1354,3.1337,3.1347,3.1308,3.1343,3.1286,3.132,3.1302,3.1296,3.1293,3.1284,3.1323,3.1251,3.1145,3.1131,3.1282,3.1284,3.1285,0,3.1648,3.1587,3.1597,3.1536,3.1508,3.1529,3.1497,3.1483,3.1481,3.1454,3.1451,3.142,3.1448,3.1438,3.141,3.1403,3.136,3.141,3.1364,3.1362,3.1363,3.1267,3.1248,3.1169,3.1302,3.13,3.1299,0,3.172,3.1706,3.1695,3.1684,3.1669,3.1646,3.161,3.1584,3.1565,3.1549,3.1516,3.1476,3.1493,3.1477,3.1483,3.1454,3.139,3.1476,3.1476,3.1456,3.1312,3.1294,3.1281,3.14,3.1398,3.1396,3.1312,0,3.1816,3.1788,3.1759,3.1737,3.1721,3.1685,3.1688,3.167,3.1678,3.1676,3.163,3.1618,3.1589,3.1577,3.1584,3.152,3.1529,3.1549,3.158,3.1519,3.1491,3.148,3.1621,3.1622,3.1623,3.1624,0,0,3.1901,3.186,3.1872,3.1839,3.1825,3.1848,3.1809,3.1798,3.1774,3.1763,3.1782,3.1722,3.1711,3.1654,3.1636,3.1626,3.1612,3.1634,3.1549,3.1541,3.1533,3.1503,3.1492,3.1625,3.1625,3.1626,3.1626,0,3.1936,3.1931,3.1893,3.1883,3.1868,3.1869,3.186,3.1849,3.1846,3.1803,3.1819,3.1792,3.1746,3.1731,3.1717,3.1643,3.1654,3.1634,3.1591,3.1557,3.1548,3.154,3.1508,3.1498,3.1628,3.1628,3.1628,0,3.2004,3.1997,3.1981,3.1954,3.1944,3.1915,3.195,3.1919,3.1897,3.1921,3.1877,3.1871,3.1852,3.18,3.1777,3.1793,3.1691,3.1726,3.1721,3.1716,3.1683,3.1672,3.1662,3.1792,3.1793,3.1793,0,0,3.2033,3.2008,3.2003,3.1961,3.1954,3.1955,3.1941,3.1947,3.1932,3.1926,3.1918,3.1901,3.1873,3.1855,3.1829,3.1773,3.1767,3.1746,3.1738,3.1732,3.1724,3.1689,3.1678,3.1796,3.1796,3.1796,0,0,3.2046,3.2039,3.2051,3.2004,3.199,3.1981,3.1954,3.1967,3.1945,3.1949,3.1956,3.1952,3.1904,3.1897,3.1925,3.1839,3.1871,3.1864,3.1845,3.1835,3.1828,3.1828,3.1956,0,0,0,0,0,3.2083,3.2041,3.2051,3.2044,3.2009,3.1975,3.1971,3.1977,3.1999,3.1977,3.1972,3.1988,3.1913,3.1938,3.193,3.1897,3.1823,3.1818,3.1813,3.1776,3.1766,3.1757,0,0,0,0,0,0,3.2081,3.2072,3.2052,3.2041,3.2034,3.1977,3.2015,3.2015,3.2001,3.2005,3.1988,3.1987,3.199,3.1943,3.1935,3.1904,3.1959,3.1821,3.1817,3.1813,3.1772,3.1764,3.1757,0,0,0,0,0,3.2079,3.2072,3.2015,3.2042,3.2035,3.2033,3.2017,3.2017,3.2006,3.1999,3.1998,3.2012,3.1989,3.1983,3.1938,3.1907,3.1964,3.1961,3.1818,3.1815,3.1812,3.1768,0,0,0,0,0,0,3.2077,3.2071,3.2013,3.2012,3.2059,3.2037,3.2034,3.2019,3.2001,3.2,3.2024,3.2027,3.1988,3.1984,3.1979,3.1908,3.1969,3.1966,3.1964,3.1816,3.1813,3.1811,0,0,0,0,0,0,3.2075,3.2069,3.2012,3.2034,3.2034,3.2039,3.2037,3.2,3.2001,3.2027,3.2029,3.2025,3.1995,3.1984,3.198,3.1922,3.1972,3.1969,3.1967,3.1966,3.1814,3.1812,0,0,0,0,0,0,3.2073,3.2068,3.2034,3.2035,3.2035,3.2014,3.2007,3.197,3.2021,3.2027,3.2026,3.2028,3.1994,3.1991,3.198,3.1924,3.1923,3.1972,3.197,3.1969,3.1968,0,0,0,0,0,0,0,3.2071,3.2102,3.2025,3.2036,3.2036,3.1994,3.1993,3.1993,3.2022,3.2024,3.2026,3.2027,3.1989,3.1986,3.1982,3.1926,0,0,3.1972,3.1971,0,0,0,0,0,0,0,0,3.2104,3.2103,3.2025,3.2025,3.2024,3.1994,3.1993,3.1993,3.2022,3.2024,3.2025,3.2027,3.1988,3.1985,3.1983,0,0,0,0,0,0,0,0,0,0,0,0,0,0,0,3.2025,3.2025,0,3.1994,3.1993,3.1993,3.2022,3.2024,3.2025,3.2026,3.1987,3.1985,3.1983,0,0,0,0,0,0,0,0,0,0,0,0,0,0,0,0,0,0,0,0,0,0,0,0,0,0,0,0,0,0,0,0,0,0,0,0,0,0,0,0,0,0,0,0,0,0,0,0,0,0,0,0,0,0,0,0,0,0,0,0,0,0,0,0,0,0,0,0,0]}]]]